RH
72 69 72 75 78 79 76 73 71 73 75 76 77 68 61 62 61 64 72 78 80 78 77 79 79 78 77 75 75 76 77 74 71 67 59 57 64 74 76 75 75 75 77 78 77 77 75 75 75 75 76 76 74 73 67 65 70 73 72 72 72 73 77 80 77 75 75 76 76 77 78 78 77 77 77 74 71 70 68 66 63 59 65 73 71
69 71 74 75 75 76 74 71 73 75 74 73 73 72 66 60 58 61 68 76 78 77 77 80 79 77 76 75 73 71 73 74 74 71 64 63 68 72 72 72 73 73 75 76 76 79 78 76 76 75 77 79 79 77 72 68 69 72 72 74 75 72 75 78 76 74 75 78 77 75 76 75 73 74 74 73 72 71 70 70 68 65 70 73 69
68 72 74 73 72 73 72 70 72 74 73 70 70 74 74 68 63 64 70 75 76 77 77 77 76 75 75 75 72 71 75 78 77 73 65 64 65 67 69 70 75 75 72 73 76 79 78 74 75 75 76 79 81 79 77 79 77 73 71 71 74 74 75 75 74 74 75 78 77 74 74 74 73 72 72 73 72 70 71 72 72 73 77 78 77
69 70 71 71 69 70 70 69 68 69 71 71 70 74 76 74 71 71 76 75 75 76 75 75 74 74 77 77 75 77 78 78 77 75 70 67 66 68 72 72 76 76 72 74 75 75 72 70 73 75 75 75 78 78 78 81 81 78 72 67 69 73 74 75 75 74 73 73 73 71 71 72 74 74 75 76 74 73 75 76 76 77 78 77 77
70 67 66 67 65 67 68 66 64 65 68 70 72 76 76 74 74 76 76 75 76 72 70 73 73 76 77 73 73 78 79 77 76 75 73 71 72 74 75 73 75 76 75 76 73 73 71 70 75 77 77 75 76 77 77 78 80 80 75 67 65 68 71 74 74 73 74 72 71 70 70 72 74 77 77 74 70 68 68 66 67 71 74 73 71
70 68 67 66 63 65 64 63 64 66 67 70 74 76 73 73 73 75 77 79 72 62 67 72 75 78 72 67 71 78 78 77 75 74 74 73 76 76 75 74 74 76 76 77 74 75 75 74 77 79 78 76 77 77 76 77 78 80 79 72 69 69 69 71 73 75 75 73 72 71 72 72 72 75 74 69 65 62 62 59 57 58 58 57 56
67 66 67 66 64 65 63 64 70 72 73 74 77 75 72 73 73 76 81 80 65 57 70 71 73 73 66 70 75 79 76 76 76 74 77 76 77 76 76 76 75 76 77 78 76 75 74 75 78 80 79 78 79 76 75 77 78 79 79 76 73 70 68 68 71 73 72 71 72 72 72 70 68 70 71 68 65 59 60 62 60 56 51 49 50
61 62 65 64 65 66 65 68 75 77 77 76 77 74 72 74 76 81 80 77 67 64 74 70 69 69 68 75 77 76 72 75 76 75 80 78 77 77 77 78 77 77 77 77 78 77 73 72 75 79 79 78 78 76 74 76 77 77 76 75 72 68 66 67 68 69 69 68 69 71 70 69 68 70 72 70 67 62 60 61 61 61 59 60 61
59 63 66 65 67 71 72 75 77 78 77 76 78 74 72 75 78 82 80 79 75 69 73 71 70 72 76 79 76 74 70 74 78 78 83 78 77 78 78 79 77 76 77 76 77 79 76 75 75 77 79 77 77 76 75 76 76 76 77 76 72 68 65 65 65 66 67 67 67 69 70 69 69 72 74 70 66 63 59 58 59 62 66 70 72
63 65 66 65 70 77 78 79 80 79 78 78 79 78 77 76 76 82 84 83 76 72 74 71 71 74 79 78 76 74 68 73 78 82 85 80 76 75 77 79 77 75 77 77 76 78 78 79 77 77 79 78 77 77 77 76 76 75 75 74 69 62 56 54 54 56 60 64 67 68 70 69 68 70 71 68 65 62 60 61 64 66 68 72 75
64 62 63 67 74 79 79 80 80 79 79 78 77 80 85 77 75 82 84 82 76 78 75 69 72 74 76 75 77 74 68 70 75 85 86 80 76 74 75 76 78 74 74 76 74 74 76 79 79 79 79 78 77 76 77 78 77 74 69 66 60 52 44 42 42 43 46 52 57 61 64 65 64 64 64 65 66 67 68 68 69 69 68 70 74
57 58 64 72 77 79 79 79 78 79 78 78 77 79 89 80 77 83 82 80 79 83 75 69 75 75 74 74 77 73 67 70 74 84 86 80 77 76 75 73 77 76 73 74 73 74 74 76 79 79 78 77 76 73 76 77 75 71 65 59 53 47 42 40 39 39 40 43 46 49 52 54 55 57 60 62 62 64 66 61 58 58 58 61 64
54 61 68 75 78 79 79 78 76 77 77 78 77 78 90 80 72 80 80 78 80 87 80 74 78 76 74 72 75 69 67 75 77 84 84 77 74 74 74 73 75 75 74 74 73 68 65 72 78 79 77 78 78 76 76 76 74 70 65 62 56 51 46 42 38 38 39 41 42 42 42 44 46 50 53 54 53 51 51 48 47 49 50 53 54
60 68 73 77 79 80 79 78 76 77 78 78 77 77 88 79 66 75 78 76 78 86 86 79 76 76 75 73 76 72 73 80 79 81 79 73 70 69 72 74 74 74 75 75 70 62 66 78 80 76 75 77 79 77 78 77 74 68 64 63 58 51 46 43 39 38 39 40 40 40 40 40 41 43 44 45 45 44 45 44 45 47 48 50 49
68 73 75 79 80 82 80 78 77 77 76 77 78 76 84 81 67 72 78 76 76 83 87 79 75 78 78 77 82 82 81 82 78 78 77 74 69 65 66 68 71 74 75 74 71 68 75 81 74 69 71 76 77 77 77 75 70 63 59 58 55 49 44 42 39 37 37 39 40 40 41 41 41 41 42 42 43 43 45 45 46 47 47 47 45
72 76 76 80 80 80 80 79 78 77 77 76 80 80 85 83 69 71 78 78 77 82 88 85 82 83 81 82 88 88 85 79 74 74 75 74 69 66 62 61 66 70 73 73 73 71 70 70 66 65 70 71 72 73 71 67 63 60 59 58 59 54 46 43 42 40 37 36 38 39 40 41 41 42 42 42 42 42 42 43 44 44 43 43 43
74 77 78 81 79 79 80 79 80 80 80 78 81 81 85 84 73 73 79 80 80 78 82 84 82 80 82 86 88 86 81 73 71 72 72 71 69 69 62 60 63 65 69 71 72 68 64 64 62 65 68 65 65 67 65 64 62 62 63 63 63 59 52 47 45 44 42 39 37 38 39 39 40 40 41 41 41 41 40 40 40 40 40 40 40
77 79 79 82 81 82 81 81 83 80 79 79 82 83 87 86 76 75 80 83 82 75 74 76 73 76 82 81 81 81 76 71 72 67 64 63 63 64 61 60 60 60 63 67 70 65 59 59 60 64 65 63 66 68 66 64 62 64 67 67 65 61 57 56 51 46 46 45 42 41 40 41 42 42 42 42 40 39 37 35 34 35 35 36 36
79 82 82 83 84 85 81 81 82 78 77 79 82 85 91 90 80 77 78 83 85 81 81 79 76 79 80 75 77 79 74 71 67 58 57 59 58 58 57 54 51 51 51 55 61 58 55 56 59 63 64 66 69 68 65 62 62 65 68 69 69 66 65 64 57 48 45 45 44 42 42 42 43 41 39 37 35 32 30 29 28 28 29 30 30
81 84 83 82 85 84 78 78 78 75 77 81 84 85 89 90 86 78 73 79 84 84 84 82 82 81 75 72 74 74 71 67 60 57 60 61 59 57 53 47 44 44 44 47 51 52 54 56 58 62 66 70 69 66 64 64 66 67 68 71 72 72 73 67 54 45 42 42 41 39 38 40 39 36 32 30 28 26 25 25 25 26 28 30 32
82 83 82 80 80 77 72 74 74 76 80 83 84 85 87 89 91 84 73 75 82 83 81 77 78 76 70 68 68 67 65 62 60 62 63 61 62 58 48 42 43 44 45 48 50 52 53 53 57 64 69 71 70 68 66 67 67 68 70 72 73 74 74 65 47 39 38 37 36 34 33 34 33 31 29 29 29 30 31 33 38 41 45 48 51
75 75 77 76 74 72 71 73 75 79 82 82 82 85 86 87 91 88 79 78 79 80 79 75 75 71 67 67 66 65 63 62 64 64 62 63 64 57 45 40 42 43 44 46 47 49 50 55 61 67 70 71 71 69 68 69 69 71 73 73 73 72 70 59 41 34 34 33 32 31 31 31 31 31 33 37 42 46 50 54 59 63 64 65 65
65 68 71 72 74 74 74 75 77 80 81 80 80 83 85 85 87 87 85 82 73 69 70 71 72 70 69 68 66 64 62 63 64 64 64 65 61 54 44 40 40 40 41 42 44 47 52 59 64 67 70 71 71 70 70 70 71 72 72 72 71 69 64 50 36 33 32 31 32 31 31 32 35 39 45 51 56 59 65 69 72 75 75 74 74
63 66 69 73 77 78 78 78 78 79 81 81 80 82 84 83 83 84 84 80 70 64 65 64 64 64 64 63 62 61 59 60 60 60 61 59 54 50 46 44 45 46 47 47 48 52 58 62 64 66 69 70 71 70 70 70 70 69 69 69 68 65 55 41 34 33 33 33 34 34 36 40 46 51 56 61 64 67 72 75 75 76 74 73 72
63 67 71 76 80 80 81 78 76 78 80 81 80 80 81 80 79 81 81 79 75 72 70 66 62 61 59 58 59 58 56 57 56 54 53 50 48 47 47 48 51 54 56 57 58 60 63 64 65 66 67 69 70 71 71 70 68 67 66 64 64 60 49 39 38 38 38 39 40 43 47 51 55 58 62 66 71 73 72 70 69 69 67 64 62
63 69 75 80 81 80 82 78 76 77 76 75 76 76 76 75 75 77 77 76 76 75 73 68 65 61 57 57 58 57 56 57 56 54 53 51 50 49 50 52 56 60 64 66 68 68 68 68 68 68 68 69 70 70 70 68 65 63 62 61 60 56 52 51 51 50 49 50 50 52 54 57 61 65 68 69 70 69 67 64 63 62 61 58 54
63 70 76 79 79 78 82 81 78 77 74 72 71 72 73 73 74 75 73 72 72 71 69 65 61 58 56 57 57 56 57 58 60 60 61 60 59 59 60 62 63 65 68 70 71 71 71 70 71 71 70 69 68 67 66 64 63 61 60 58 57 58 61 64 63 60 57 56 55 54 56 60 63 66 67 66 63 62 62 61 59 57 54 51 49
64 70 73 73 75 77 81 80 78 77 76 74 71 71 71 72 73 72 69 69 69 67 63 59 56 55 56 56 55 56 57 60 63 66 67 66 66 67 68 68 68 69 69 70 70 70 70 70 70 69 67 66 64 63 62 62 61 59 57 56 57 60 65 68 66 62 57 55 54 55 56 57 58 59 59 59 57 56 55 53 50 47 45 45 47
63 66 66 68 72 76 79 76 74 76 77 75 72 71 70 71 69 65 64 64 63 61 58 56 55 56 56 55 55 56 59 63 67 69 69 69 69 69 69 68 68 67 67 67 67 67 67 67 66 64 63 61 60 61 62 62 61 58 56 57 59 62 65 67 64 60 59 58 57 59 60 58 58 57 57 56 53 50 47 44 42 42 44 47 51
61 63 62 64 69 73 75 73 71 74 74 73 72 71 70 69 64 58 60 60 58 58 57 57 58 58 56 55 55 58 65 71 74 75 76 76 74 73 72 71 68 65 64 64 65 65 63 63 63 62 61 59 58 60 62 63 62 59 59 60 63 65 66 63 60 61 65 64 62 63 65 66 64 61 59 55 51 47 43 42 43 45 49 52 56
60 62 61 62 66 70 72 71 72 72 71 70 69 70 70 67 61 58 60 60 58 56 57 59 59 58 56 56 58 62 71 78 81 82 82 81 80 79 79 77 73 66 62 61 62 62 62 62 63 62 60 59 58 58 61 63 62 61 60 62 63 64 64 59 58 63 67 67 65 63 65 69 68 65 60 54 49 46 44 44 45 50 54 58 62
58 61 61 61 63 67 69 69 71 71 70 69 69 70 70 65 61 60 59 58 56 55 56 59 60 60 61 64 66 69 73 78 80 81 83 83 81 81 81 80 76 68 61 59 60 61 63 64 64 63 60 58 57 57 59 61 62 61 60 61 61 61 60 58 58 61 63 65 66 66 68 70 69 66 60 53 47 45 44 45 48 54 58 63 67
59 63 61 62 62 65 67 67 68 70 70 70 71 72 71 65 60 58 56 54 53 53 55 59 63 68 73 76 77 76 77 78 79 80 81 81 79 78 77 78 76 68 60 59 60 62 64 66 66 65 60 56 54 56 59 60 61 62 61 61 61 59 58 57 58 59 60 61 63 65 67 68 68 64 57 49 43 43 45 48 54 59 61 65 68
61 63 63 62 62 63 65 64 64 67 69 70 69 68 68 64 58 57 58 56 55 56 57 60 67 74 79 81 82 81 80 80 79 80 80 79 75 73 73 74 74 68 61 60 61 62 65 68 68 64 58 53 52 55 60 61 60 61 61 61 61 59 57 57 58 60 60 61 61 61 62 62 62 59 53 47 44 45 47 51 58 62 64 64 64
62 62 64 62 60 60 62 61 61 65 67 68 65 62 62 60 57 60 64 62 62 64 64 66 71 75 78 80 82 82 82 82 81 81 80 78 75 73 73 71 71 70 64 62 61 62 66 68 66 62 58 55 53 54 58 60 59 59 60 60 60 58 57 57 57 59 60 60 60 60 60 60 59 56 52 49 48 50 52 54 57 61 64 63 61
60 63 65 61 59 57 58 59 60 63 66 68 66 59 56 55 57 63 66 63 66 69 70 73 75 77 79 80 82 82 82 82 81 82 81 77 76 75 75 71 69 69 66 64 63 64 68 67 64 60 57 56 56 53 54 58 59 59 59 58 59 58 57 55 56 57 58 59 58 58 58 57 57 55 54 53 54 55 55 56 57 59 61 62 62
60 65 65 59 58 55 54 56 58 60 64 67 65 58 54 54 58 63 65 64 66 68 72 75 75 76 77 78 80 81 81 80 79 80 78 75 75 75 76 74 72 70 68 66 66 67 68 66 62 58 57 56 56 54 54 56 58 58 58 56 57 58 56 55 56 56 57 58 57 56 55 54 53 54 53 53 54 56 55 55 56 58 58 60 60
61 65 66 61 58 54 51 52 55 57 60 64 63 60 58 57 60 63 65 66 68 70 73 73 72 73 73 73 76 79 79 77 76 76 74 73 73 75 77 77 74 71 69 68 68 69 67 64 61 57 57 55 54 54 54 55 56 57 56 54 56 57 54 54 54 55 56 57 57 56 54 51 50 51 51 51 52 53 53 54 56 58 58 58 57
63 65 67 65 61 57 53 53 55 55 56 61 64 64 65 63 63 65 68 70 70 69 70 69 69 70 70 68 70 75 78 78 77 76 73 73 74 76 79 78 75 71 69 68 69 68 65 63 61 57 56 54 53 54 54 54 55 56 55 54 56 55 53 53 54 54 54 55 55 55 53 51 50 50 50 51 52 52 52 53 56 58 59 58 57
66 66 68 68 65 61 58 57 58 59 58 59 64 69 70 70 69 68 68 67 65 65 67 67 67 68 67 66 67 72 77 80 80 77 74 73 75 76 77 77 74 70 67 67 68 66 63 62 61 58 55 53 53 53 54 54 54 55 55 54 54 54 53 53 53 53 53 53 52 52 51 51 51 51 50 51 52 53 53 53 54 56 58 59 59
68 68 67 68 68 66 64 61 62 65 62 59 63 67 68 69 69 66 62 60 58 60 64 65 66 68 67 67 68 70 76 81 83 80 75 73 74 75 75 75 74 69 67 66 66 65 63 62 61 58 56 55 53 52 53 53 53 54 54 53 51 51 52 52 52 52 52 51 50 50 50 50 50 50 49 50 50 51 52 52 53 54 57 60 60
66 67 67 67 69 71 70 67 66 69 67 63 64 64 64 65 63 60 58 56 55 55 58 62 66 69 70 69 68 68 73 80 83 81 78 76 75 73 72 73 73 70 67 65 65 64 63 62 61 58 56 56 54 51 52 52 53 55 55 53 50 49 50 50 51 52 51 50 49 48 49 49 49 50 50 50 50 50 50 51 52 52 55 58 58
63 65 67 68 70 72 74 72 70 71 70 69 68 65 65 66 64 62 60 57 56 60 61 62 66 68 68 68 66 65 68 75 81 81 80 78 74 72 73 75 75 71 67 66 65 63 63 64 62 59 57 56 55 53 54 54 54 56 56 54 52 50 50 49 49 50 49 48 48 47 47 48 49 49 49 49 50 51 50 50 52 54 56 59 59
65 66 69 71 71 70 73 74 73 73 74 73 71 71 70 71 71 70 70 67 67 73 73 70 72 71 66 63 63 63 64 70 78 78 78 76 72 72 74 76 75 71 67 65 64 63 63 65 63 60 57 55 55 55 55 55 54 55 55 54 53 51 50 48 47 48 48 47 47 46 46 48 49 50 48 47 49 50 50 51 52 55 57 58 60
69 69 69 69 69 66 65 70 73 74 76 77 76 76 75 75 76 76 77 76 76 80 81 79 80 74 64 58 60 61 62 68 73 72 73 74 71 72 74 74 72 68 65 65 65 63 63 66 65 62 58 54 55 56 55 55 55 55 56 56 55 53 52 49 47 48 48 47 47 46 46 48 49 49 48 48 49 49 50 50 51 54 56 57 59
70 70 68 66 66 63 60 65 72 74 77 79 79 78 76 74 74 75 76 76 77 79 79 79 77 72 65 60 59 60 60 65 68 67 71 74 71 72 75 72 68 65 64 66 67 64 64 66 65 63 60 54 54 57 58 58 57 57 57 58 57 56 56 53 49 48 48 48 47 47 47 48 49 49 50 51 50 50 50 49 50 54 56 57 58
69 69 68 66 65 62 60 64 70 75 77 77 79 80 77 73 72 73 73 74 75 74 75 75 73 73 72 66 60 60 61 63 65 65 69 73 73 72 72 69 66 66 66 69 71 68 66 66 65 65 63 58 56 58 60 59 59 60 59 59 58 58 59 58 55 52 50 49 49 49 50 50 50 51 52 53 52 52 51 51 52 55 57 57 57
68 69 69 68 67 64 63 64 67 74 78 77 80 82 79 76 74 73 73 73 72 72 72 72 72 74 76 71 63 60 61 63 65 66 68 71 73 73 72 68 66 67 67 72 75 72 69 68 67 66 65 62 60 62 63 61 62 64 61 60 59 57 57 59 58 55 55 53 51 51 52 51 53 54 55 54 55 55 55 55 56 56 57 57 57
69 70 68 68 70 71 70 69 69 73 80 81 80 81 80 78 77 77 75 73 73 74 75 75 73 74 75 72 66 61 61 64 66 67 68 72 73 74 75 71 69 68 69 73 75 73 72 70 68 67 67 66 65 65 66 65 66 66 63 60 59 57 57 57 57 57 57 56 54 54 53 52 52 54 55 55 55 57 57 58 58 56 57 58 58
69 69 69 68 70 74 75 75 73 72 78 82 80 79 79 79 80 81 78 76 75 75 77 78 76 75 75 71 66 61 61 64 67 67 71 75 74 73 74 72 71 70 70 72 72 72 72 70 68 66 65 66 66 65 65 66 66 66 65 63 61 61 60 58 58 58 58 58 58 57 57 55 53 52 54 56 56 57 59 59 58 58 59 60 60
68 70 70 68 69 72 73 73 73 71 74 79 80 77 77 79 80 81 80 79 77 76 78 78 76 76 72 66 65 62 61 64 67 68 73 77 74 69 70 72 72 70 69 69 71 73 73 71 69 65 62 62 63 65 67 66 65 65 65 65 65 64 62 60 59 59 59 61 61 60 59 57 54 55 57 58 58 58 58 58 59 60 60 61 61
Wind_Speed
18 17 16 14 13 12 11 11 10 9 8 8 7 7 10 10 10 11 11 11 12 13 13 13 12 11 10 10 9 9 10 11 11 12 13 14 15 15 15 15 13 13 13 15 16 16 16 16 16 16 16 16 16 14 15 15 14 15 15 15 15 16 16 17 17 16 16 16 16 16 16 16 16 16 16 16 16 15 15 14 13 13 15 14 13
17 16 15 14 13 12 11 10 10 9 8 8 7 7 8 9 9 10 10 11 12 12 12 12 11 10 9 10 10 10 11 11 12 13 14 15 15 15 15 15 14 13 13 14 16 16 16 16 15 15 15 16 16 15 15 16 15 15 14 14 15 15 15 16 16 16 16 15 16 16 16 15 15 15 15 15 15 15 14 14 13 14 15 14 13
15 15 15 14 13 11 10 10 9 9 9 8 8 6 7 8 9 10 10 10 11 11 11 11 10 9 9 10 10 10 11 11 12 13 14 15 16 16 16 16 14 13 13 14 15 16 16 15 15 14 14 15 15 15 14 15 16 15 14 14 15 14 14 14 15 15 15 15 15 16 15 15 15 15 14 14 13 13 13 13 13 14 14 14 13
15 15 14 13 12 11 9 9 8 8 7 7 7 6 6 7 8 9 9 9 9 10 10 10 10 9 10 10 10 10 11 11 12 13 14 15 16 16 16 16 14 14 14 15 15 15 15 15 14 14 14 14 14 14 14 15 15 15 14 14 15 14 14 14 14 14 14 14 15 15 15 15 15 14 13 13 11 11 12 12 12 13 13 12 12
16 14 13 12 11 10 9 7 7 7 6 6 6 5 5 6 7 8 8 8 9 10 10 10 9 9 10 10 10 10 10 11 12 13 14 14 15 15 15 15 14 14 14 15 15 15 15 14 14 14 14 14 14 13 14 14 15 16 15 14 14 14 14 14 14 14 14 14 14 13 14 14 14 13 12 10 9 9 9 9 10 10 10 10 10
16 14 13 11 10 9 8 7 6 6 5 5 6 5 5 6 6 7 7 8 9 8 10 11 10 10 10 10 10 10 10 11 12 13 14 13 13 14 15 15 15 14 14 15 15 14 14 14 13 13 13 14 14 13 13 14 14 15 16 15 14 13 14 14 14 14 13 13 12 12 13 12 12 12 10 8 8 8 8 8 8 8 8 8 8
15 14 12 11 9 8 8 7 7 7 6 6 6 5 6 7 7 7 8 7 8 8 9 10 10 10 10 10 10 10 10 11 12 13 13 13 13 14 15 15 15 14 14 15 14 14 14 13 12 12 13 13 13 13 13 13 13 15 15 15 14 14 13 13 13 12 11 11 11 11 11 10 10 9 8 7 7 7 7 8 8 8 8 8 8
14 12 11 10 9 9 9 9 8 7 7 6 5 5 6 8 7 7 8 7 7 8 8 9 10 10 10 10 11 10 10 10 11 12 13 13 13 13 14 14 14 14 13 13 14 13 13 13 12 11 12 12 13 13 13 13 13 14 15 15 14 14 13 12 11 10 10 9 10 9 9 8 8 8 7 6 6 7 7 7 8 8 9 9 9
14 11 11 10 9 9 9 8 7 6 6 5 5 5 6 8 7 6 7 7 8 9 8 8 9 10 11 11 11 11 11 11 11 12 12 12 12 13 14 14 13 13 13 12 13 13 12 12 12 11 12 12 12 13 13 13 13 13 14 14 13 13 12 10 9 9 8 8 8 8 7 7 6 7 6 5 5 6 6 6 7 8 8 8 8
13 12 11 10 10 8 8 7 6 5 5 5 5 6 7 8 8 7 7 7 7 8 9 8 8 9 11 11 11 12 11 11 11 11 12 13 12 12 13 13 13 12 12 12 12 11 11 11 11 11 11 11 12 12 12 13 13 13 13 13 12 12 11 10 8 7 7 6 6 6 6 5 5 5 5 4 4 4 6 7 7 8 8 7 7
13 12 11 10 9 7 7 6 5 5 5 6 6 7 8 8 8 7 7 7 7 7 8 8 8 9 10 11 11 11 11 11 10 11 12 13 13 12 11 12 13 12 11 12 11 11 11 11 10 11 11 11 11 11 12 12 12 13 13 12 12 12 11 10 9 8 7 5 5 5 5 5 4 5 5 5 5 6 7 7 7 7 7 6 6
13 12 12 11 9 7 6 5 4 4 5 6 6 6 7 7 7 8 7 7 7 7 8 9 9 10 10 11 11 11 11 11 10 10 12 12 12 12 11 11 12 11 11 11 11 11 11 11 10 10 10 11 11 12 12 12 13 14 13 12 12 12 12 11 10 9 8 7 6 6 6 5 5 5 6 7 7 7 6 6 6 6 6 5 5
13 12 11 10 8 7 6 5 4 4 4 5 6 6 5 6 6 7 7 7 7 8 9 9 9 10 11 11 11 11 11 11 10 10 12 12 11 11 11 11 10 10 10 10 11 11 11 11 11 10 10 11 11 12 12 12 13 13 13 12 12 12 11 11 11 10 9 8 8 7 7 6 6 6 7 7 6 6 6 5 5 5 5 4 3
12 11 10 9 8 7 5 4 3 3 3 3 4 5 5 6 6 7 7 7 7 8 10 10 10 11 11 12 11 12 13 12 11 11 11 11 11 10 10 10 9 9 9 10 10 10 10 10 10 9 9 10 11 11 12 12 12 13 13 12 12 12 11 11 10 10 9 9 9 8 7 7 7 7 7 7 6 6 6 6 5 5 4 4 4
10 10 9 8 7 7 5 4 3 2 3 3 4 5 5 7 6 7 8 8 8 9 10 10 11 12 12 12 12 13 13 13 12 11 11 12 11 10 9 9 9 9 9 9 10 10 10 10 10 9 9 10 11 11 11 11 13 14 14 13 13 13 12 11 10 9 9 9 8 7 7 7 7 7 7 7 6 6 6 5 5 5 5 5 5
10 10 9 8 7 6 6 5 4 4 4 4 4 6 6 7 7 7 9 9 8 9 9 10 12 12 12 13 13 13 13 13 12 11 12 12 11 10 10 9 8 8 8 9 10 11 10 10 9 9 9 10 10 10 11 12 15 15 15 15 14 14 14 12 11 10 9 8 7 7 7 7 7 6 6 6 6 6 5 5 5 5 5 5 5
10 9 8 7 7 6 6 6 5 5 5 5 5 7 8 8 8 7 9 9 8 8 8 10 11 12 12 12 13 12 13 13 12 11 11 11 10 9 9 9 9 10 10 10 11 10 10 10 9 9 9 9 10 10 11 13 14 14 14 14 14 13 13 12 11 11 9 8 7 7 7 6 6 6 6 6 5 5 5 6 6 6 6 5 5
9 8 8 7 6 6 6 5 5 5 5 5 5 7 9 9 9 8 9 10 10 9 10 11 12 12 12 12 13 13 13 13 12 11 11 10 10 9 9 9 10 11 11 11 11 10 10 10 9 9 9 10 11 11 12 12 12 13 14 14 14 13 12 12 11 11 9 8 7 7 6 6 5 5 5 5 5 6 7 7 7 7 6 5 5
8 8 8 7 6 6 5 4 4 4 4 5 5 6 8 8 9 9 9 10 11 11 11 12 13 13 13 13 13 13 13 13 12 12 11 11 10 10 11 12 12 13 13 12 12 11 11 10 10 9 10 11 11 12 13 13 12 13 13 13 13 12 12 12 12 11 10 8 7 6 6 6 5 5 6 6 7 7 8 8 8 7 6 5 5
8 8 8 7 6 5 4 4 4 4 5 5 5 6 8 9 10 10 10 11 11 12 12 13 14 14 14 14 14 14 14 13 13 12 12 11 11 12 13 14 15 15 15 14 13 12 11 10 10 10 11 11 11 12 13 12 11 11 11 11 11 12 12 12 12 11 9 8 7 6 6 6 6 7 8 9 9 9 8 8 8 8 7 7 7
8 9 7 7 6 5 4 5 6 6 6 6 7 8 9 11 12 11 12 12 12 12 14 15 15 15 15 15 15 15 14 14 13 13 13 13 12 13 15 16 16 16 15 14 13 11 10 10 10 11 11 10 10 11 11 11 10 10 10 11 11 11 12 12 12 10 9 8 7 7 8 8 8 9 10 10 10 11 10 10 10 9 9 9 9
9 10 8 7 6 5 6 7 8 8 7 7 8 9 10 11 12 13 13 12 12 13 15 16 16 16 16 16 15 15 14 14 14 14 14 14 13 14 16 16 16 16 14 13 12 11 11 11 11 11 10 9 9 9 9 8 8 8 9 10 10 10 11 12 11 10 9 8 8 8 9 10 10 11 11 12 11 12 12 11 11 10 9 9 9
10 10 9 8 7 6 7 8 9 8 8 8 9 9 10 11 12 14 14 13 13 14 16 16 16 16 16 16 15 14 14 14 14 15 14 14 14 15 16 16 16 15 14 13 12 11 11 11 10 10 9 8 7 7 6 5 6 7 8 8 9 10 10 10 10 10 10 9 9 10 11 12 12 11 12 12 11 11 11 11 10 10 9 9 9
10 10 9 9 8 8 8 8 9 8 8 9 10 10 11 12 13 15 15 14 14 15 16 16 16 16 16 15 15 15 15 15 15 15 15 15 16 16 16 16 15 14 13 12 11 11 11 10 9 8 8 7 5 4 3 3 4 6 7 8 9 10 10 10 10 10 10 10 10 11 12 12 12 11 12 12 11 11 11 10 10 10 9 9 10
10 10 10 9 9 9 9 9 9 9 9 9 11 11 12 14 14 15 16 15 15 15 15 16 16 16 15 15 15 15 16 16 16 15 15 16 17 16 16 15 14 13 12 12 11 10 10 9 9 8 7 5 4 2 1 2 3 5 7 8 9 10 10 11 11 11 11 11 11 11 12 12 11 11 11 11 11 11 11 10 11 11 10 10 11
11 10 10 10 10 10 11 11 10 10 10 11 12 12 13 14 15 15 16 16 16 16 16 16 16 16 15 16 16 16 16 16 16 16 16 16 16 15 14 13 12 12 11 11 10 9 9 8 7 6 5 4 3 2 1 1 3 5 7 8 9 10 12 13 12 12 11 11 11 11 12 12 11 11 11 11 11 11 11 11 11 11 11 11 11
11 11 11 10 11 11 13 12 11 11 12 13 13 14 14 14 15 15 15 16 16 17 17 17 17 16 16 16 17 17 17 17 17 16 15 15 14 14 12 11 11 10 9 9 8 7 7 6 5 3 2 2 2 2 2 3 4 5 7 8 9 12 13 14 13 12 12 12 12 12 12 12 11 11 11 11 11 12 11 11 11 11 11 11 12
12 12 11 11 12 12 13 13 12 13 14 14 15 15 15 14 15 15 16 16 16 17 17 17 17 17 17 17 17 17 17 17 16 15 15 14 13 13 11 10 9 9 8 6 6 5 5 4 3 2 1 1 1 3 4 5 6 7 7 9 10 12 12 13 14 13 13 12 12 12 12 11 11 11 11 11 12 12 11 11 12 12 12 12 12
13 13 12 12 13 13 14 14 15 15 15 15 16 16 15 15 16 16 17 16 17 17 17 17 17 17 17 18 18 18 17 16 15 14 13 13 12 11 10 9 8 7 6 5 5 5 4 3 3 3 2 2 2 4 6 7 7 8 9 10 10 10 11 12 13 13 13 13 12 12 12 12 12 11 11 12 12 12 13 13 13 13 13 13 13
13 13 13 13 14 15 15 15 16 16 16 16 16 16 15 15 16 18 17 17 17 17 16 17 17 18 18 18 19 18 16 15 13 12 11 11 10 9 8 8 7 6 6 6 5 4 3 3 3 3 3 3 3 4 6 7 8 9 9 9 9 10 11 12 13 13 13 13 12 12 12 12 12 12 12 12 13 13 13 13 13 13 13 13 14
13 13 14 14 15 16 15 16 16 17 17 16 16 16 15 15 16 18 18 17 18 17 17 17 17 18 18 17 17 16 14 13 12 11 10 9 9 8 8 7 6 6 6 6 5 4 3 3 3 4 4 3 3 4 5 6 8 8 9 9 9 10 11 11 12 12 11 11 12 12 12 12 12 12 12 12 12 12 12 12 12 12 13 14 14
14 15 15 15 16 16 16 16 16 17 16 16 15 15 15 16 16 17 18 18 18 17 17 17 17 17 16 15 14 13 12 11 10 9 9 8 8 7 7 6 6 6 7 6 5 3 2 2 3 4 4 4 4 4 5 6 7 7 8 8 9 10 10 10 11 11 11 11 11 12 12 12 12 12 12 12 12 11 11 11 11 12 13 14 14
15 16 15 16 17 17 17 17 17 16 15 15 15 15 15 16 17 17 17 17 17 17 17 17 17 16 15 13 12 12 10 10 9 8 7 6 7 7 6 6 6 7 8 7 5 3 1 2 3 4 4 5 5 5 6 6 7 7 7 7 8 9 10 10 10 10 11 11 11 11 11 11 11 12 12 11 10 10 10 10 11 12 12 13 14
16 16 16 16 17 18 18 17 17 16 15 15 15 15 15 16 17 16 16 16 17 17 16 16 15 14 13 12 11 10 9 8 7 7 6 6 7 7 7 6 6 7 8 7 5 3 1 1 3 3 3 5 5 6 6 7 8 8 8 7 7 7 8 8 8 8 9 10 10 10 11 11 12 12 11 11 10 10 10 9 10 11 11 12 13
16 16 16 16 17 17 18 18 18 16 16 15 15 15 16 16 16 15 14 15 16 16 15 14 13 12 11 10 10 9 8 7 6 6 6 6 6 7 7 6 6 7 7 7 5 3 1 1 3 3 3 4 4 4 4 5 7 7 7 7 6 6 6 7 6 6 7 7 8 8 9 10 11 11 11 10 9 8 8 8 9 10 10 11 12
17 16 16 17 17 17 18 18 18 17 16 15 15 15 15 16 15 14 14 14 15 14 13 12 11 11 10 9 9 8 7 6 6 5 5 6 6 6 6 6 6 6 6 6 5 4 1 2 3 3 1 2 3 3 3 3 4 5 6 7 6 6 6 6 5 5 5 5 6 7 7 8 9 10 10 9 8 7 8 8 9 9 10 11 11
17 16 16 17 17 18 18 18 18 17 16 15 15 15 15 15 14 13 13 13 12 11 10 10 10 10 9 8 7 6 5 5 5 5 5 5 5 5 5 4 4 5 6 6 5 4 1 3 3 2 0 1 2 3 3 2 3 4 5 7 6 5 6 5 5 4 5 5 6 6 7 8 8 9 10 9 9 9 9 9 10 10 10 11 11
18 16 16 16 17 18 19 18 18 17 17 16 16 15 14 13 13 12 12 11 9 8 7 8 8 8 6 5 4 4 3 3 4 4 4 4 4 4 3 3 3 4 5 5 4 3 1 2 2 1 0 1 0 1 2 2 3 4 6 6 5 4 4 4 4 4 4 5 6 6 7 7 8 9 9 10 10 10 9 10 12 12 12 12 12
19 18 17 17 17 18 19 19 18 18 18 17 16 15 14 13 12 12 11 10 8 7 7 7 7 6 5 4 3 2 2 2 3 3 4 4 4 3 3 2 2 3 4 4 4 2 1 2 2 1 1 1 1 1 0 1 2 4 5 4 3 3 3 3 3 3 4 5 5 5 5 6 7 8 8 9 9 9 9 9 11 12 13 13 13
20 19 19 18 19 19 19 20 19 18 18 19 18 16 15 14 13 12 11 10 8 7 6 6 5 4 3 2 1 1 1 0 1 2 2 3 3 3 3 2 2 3 4 4 3 2 1 1 2 1 1 2 1 1 1 2 2 3 4 3 2 3 3 3 3 4 5 5 4 4 5 5 6 6 7 7 8 9 9 9 10 11 12 12 13
22 22 21 20 20 20 20 20 20 19 20 20 19 17 16 15 15 13 11 10 9 8 7 5 4 3 2 2 1 2 1 2 2 1 2 2 2 2 2 2 2 3 4 5 4 3 2 1 1 1 2 3 3 2 3 3 3 3 3 1 1 1 2 2 3 4 5 5 4 4 4 5 6 6 6 6 7 8 9 8 9 10 10 11 13
23 24 22 21 21 21 20 20 20 20 20 20 19 17 16 15 14 12 11 10 9 8 6 5 5 4 4 4 4 3 3 3 3 2 2 2 3 3 3 3 2 3 4 5 5 5 4 3 2 3 3 3 3 2 2 2 2 1 1 1 1 1 2 2 3 5 5 4 3 3 3 4 6 6 7 6 6 7 8 8 8 9 9 11 12
23 24 23 21 22 21 20 20 21 21 21 20 19 17 14 13 11 10 9 9 8 7 6 6 6 5 6 6 5 5 5 5 4 3 3 3 3 3 4 3 3 4 4 6 6 6 5 4 4 4 3 3 3 3 2 1 1 1 1 3 3 4 4 4 4 5 5 4 3 1 2 4 5 6 6 6 6 7 7 7 7 7 8 10 12
24 24 23 22 22 22 21 21 22 21 21 21 19 16 14 12 11 10 9 8 7 6 7 8 7 7 7 7 6 6 5 5 5 4 3 3 4 4 4 4 3 3 5 6 7 7 6 5 5 5 4 3 4 4 3 3 2 2 3 4 4 4 5 5 4 4 4 4 2 1 2 4 5 7 7 7 7 6 6 6 6 7 8 10 11
24 24 23 23 23 22 22 22 22 21 21 22 20 18 16 14 13 12 11 10 9 8 8 9 9 8 8 7 6 6 6 6 5 4 3 3 4 4 4 4 4 4 5 6 7 7 7 6 6 6 5 4 4 4 4 4 4 4 4 5 5 4 4 4 4 4 4 5 2 1 3 4 5 7 8 9 9 7 6 7 8 8 9 10 11
24 22 21 22 22 22 22 23 23 22 22 22 22 20 18 17 16 15 14 13 12 11 10 10 9 8 7 6 7 6 6 6 6 5 4 3 3 4 4 5 5 5 5 6 7 8 7 7 7 6 5 5 4 4 4 4 5 5 5 5 4 4 4 4 3 4 5 5 3 3 5 5 6 8 9 10 10 9 8 8 9 10 11 10 11
23 21 20 21 21 21 22 22 22 21 22 23 23 21 19 18 17 16 15 13 13 11 10 9 7 6 6 6 7 7 7 7 6 6 5 5 4 4 5 5 5 5 6 7 7 8 8 7 7 6 5 5 5 4 3 4 5 5 5 5 4 3 4 4 4 5 5 5 4 5 6 6 7 9 10 11 11 9 9 10 10 10 11 11 11
24 21 20 20 19 19 20 21 21 20 20 22 23 22 20 19 18 16 14 13 12 10 9 8 7 6 6 7 8 8 8 8 7 7 7 6 6 6 6 6 6 6 6 7 8 7 7 7 7 7 6 5 5 3 3 3 4 4 4 4 4 3 4 4 5 6 6 6 6 6 6 6 7 8 9 9 9 9 9 10 10 10 11 12 12
24 22 20 19 18 17 19 20 21 21 20 22 23 22 21 20 18 17 15 14 12 10 9 9 9 8 8 9 10 10 10 9 9 8 8 7 7 7 7 7 7 7 7 7 7 7 7 7 8 7 7 6 6 5 3 3 3 4 4 4 5 5 5 5 6 6 7 8 7 8 8 8 7 7 8 8 8 9 10 10 11 11 11 11 11
25 23 20 19 18 17 18 19 20 21 21 21 22 23 22 22 20 18 16 15 14 12 11 11 10 10 10 11 12 12 11 10 9 9 9 8 8 8 8 8 8 8 8 7 7 8 8 8 8 8 8 8 8 7 6 4 4 4 4 5 6 6 6 7 7 7 8 8 8 10 11 11 10 10 9 9 8 9 11 11 10 10 10 10 11
25 24 22 20 19 18 18 18 18 20 21 22 22 23 24 23 21 20 18 16 16 16 14 12 12 12 12 13 13 13 12 10 10 10 10 9 9 9 8 8 9 8 8 8 7 8 8 8 8 8 8 8 9 9 8 7 6 6 5 6 6 7 7 7 7 7 8 8 9 10 11 11 11 11 10 9 9 10 10 9 8 8 9 10 10
Wind_Direction
162 159 158 160 156 150 146 146 136 131 122 113 109 109 113 118 122 120 120 121 118 116 116 115 113 110 111 112 109 109 107 105 101 99 103 111 116 117 113 109 106 104 104 105 106 104 102 100 98 99 101 101 102 101 100 101 99 97 97 96 96 95 97 96 97 98 97 96 96 96 95 94 94 93 92 92 93 93 94 96 97 98 96 94 95
159 158 155 155 152 148 148 144 136 132 123 118 118 115 115 120 124 124 123 121 119 119 121 118 114 114 114 110 106 107 106 103 101 98 101 109 114 115 112 109 108 106 106 106 106 104 101 98 97 100 102 103 104 102 101 104 100 96 97 96 96 96 96 97 99 99 99 99 99 99 97 95 94 94 93 93 93 94 95 96 97 95 93 93 94
156 152 149 151 147 144 144 138 135 129 124 129 126 121 121 123 127 129 126 121 121 122 124 122 120 119 114 107 105 108 108 107 105 102 103 109 112 115 113 112 112 108 107 106 105 105 102 99 99 100 100 101 100 101 100 101 99 97 97 95 94 95 95 95 97 99 101 101 101 100 100 98 95 94 93 93 93 95 97 96 95 94 95 95 95
153 148 146 147 142 140 137 132 132 126 129 138 131 130 130 128 130 132 130 125 124 125 126 126 127 125 116 108 108 112 113 112 109 107 109 113 115 117 116 115 114 109 107 107 106 104 100 100 102 103 103 102 100 100 100 98 97 96 93 93 93 94 94 94 95 97 99 98 98 99 100 100 97 95 94 93 94 96 97 97 95 94 96 98 99
152 147 147 145 139 136 133 135 135 135 145 148 142 147 141 132 132 131 130 131 129 128 132 132 134 130 122 118 118 119 118 116 114 113 115 118 120 120 118 117 115 110 108 106 107 105 102 104 106 106 106 105 103 101 99 98 98 97 95 93 92 92 92 93 95 95 95 95 97 99 98 97 96 94 91 92 95 97 99 100 101 100 102 104 105
152 150 149 145 142 139 140 147 147 151 160 165 162 161 149 138 133 127 129 137 132 131 138 138 137 132 130 130 127 125 122 120 120 119 121 123 123 122 120 118 116 112 111 109 109 108 109 110 108 108 106 104 102 101 98 96 97 98 98 96 93 90 90 91 93 94 95 97 99 99 97 95 94 92 90 90 92 94 96 95 96 99 104 107 106
153 153 151 150 151 149 155 157 157 164 170 173 165 156 150 141 140 137 139 143 138 140 145 145 143 138 139 137 131 128 126 127 127 126 127 127 123 121 120 119 117 114 113 112 114 114 114 111 107 106 106 104 102 100 96 95 96 96 96 97 97 94 92 92 91 93 96 97 97 96 95 93 91 90 86 84 82 84 89 91 91 91 94 97 99
155 155 152 154 154 153 159 161 165 173 174 171 158 152 149 143 148 150 148 148 144 146 150 152 151 144 143 137 134 133 132 134 133 131 130 129 124 120 120 119 118 116 115 115 116 116 114 110 106 105 104 105 103 100 98 97 96 95 95 95 95 95 94 94 94 95 96 95 95 93 90 87 85 86 80 74 74 76 81 88 92 92 92 92 93
155 155 152 154 152 151 157 161 166 171 174 168 159 153 150 151 158 158 148 150 149 150 152 156 156 146 141 138 140 140 139 141 137 135 134 131 126 121 119 120 120 118 118 117 117 116 114 113 110 108 105 104 102 99 97 94 94 93 93 92 91 91 91 92 94 96 97 97 96 93 88 81 78 81 78 69 70 74 76 83 91 94 93 90 90
153 152 153 155 151 153 157 160 166 171 176 171 168 159 158 162 164 162 149 150 155 154 152 155 159 147 143 146 147 145 145 144 141 142 136 129 124 120 118 119 121 120 119 119 121 120 116 113 111 110 108 103 98 94 93 91 91 90 88 87 86 86 85 86 88 93 97 98 96 93 88 79 71 73 71 62 65 72 74 77 82 88 90 90 89
151 150 152 153 151 154 157 160 169 177 183 174 177 175 169 166 162 159 156 157 159 155 151 157 159 149 149 152 149 146 143 141 145 144 133 124 121 119 118 117 120 122 124 123 124 123 118 115 113 111 106 98 94 93 92 91 87 85 84 82 81 80 77 75 77 83 89 92 91 86 81 74 67 67 69 68 70 73 74 75 77 83 89 92 91
148 149 150 150 150 155 159 163 175 182 186 178 176 183 169 158 161 157 159 165 158 151 152 162 159 149 154 154 147 145 139 139 144 138 126 121 118 116 117 118 120 125 129 126 123 123 121 119 117 111 101 94 92 93 92 91 88 84 82 78 74 72 68 67 67 69 73 76 76 72 66 61 63 69 70 70 69 70 71 73 73 79 86 89 91
145 148 148 146 151 158 162 165 178 179 180 179 170 178 163 151 163 155 156 165 156 150 153 161 155 149 155 151 147 145 141 142 143 133 123 119 118 119 119 120 123 126 128 126 122 123 124 122 120 110 98 94 91 91 90 89 87 83 80 75 70 66 64 62 62 61 61 64 65 64 61 60 64 69 68 66 65 64 64 65 67 70 74 78 76
143 145 144 147 154 155 161 159 163 165 161 165 156 166 159 147 159 150 145 159 160 154 153 155 150 150 152 150 152 149 146 146 142 132 120 114 114 118 120 122 127 128 127 125 121 120 122 119 116 107 97 97 93 89 89 88 83 77 74 71 68 65 61 60 59 59 56 57 58 58 60 60 61 62 62 62 60 59 58 57 59 60 59 58 52
145 147 149 152 155 152 157 149 141 139 132 139 139 150 151 141 152 148 141 153 163 156 151 151 148 148 149 153 156 147 144 144 137 126 113 109 108 110 115 122 131 133 128 120 114 113 117 116 111 105 99 98 94 90 87 85 82 77 72 69 66 62 59 58 57 56 55 56 56 55 55 55 54 55 56 55 53 52 51 51 51 51 46 44 41
154 154 153 153 154 156 154 145 142 140 137 148 145 142 143 143 154 152 145 151 158 154 148 146 144 145 150 154 151 142 140 137 128 118 109 106 105 105 112 124 135 139 131 119 115 117 123 123 114 105 99 93 90 89 87 87 84 77 71 67 63 58 57 56 56 55 55 55 55 54 53 50 46 45 47 46 44 44 43 44 41 39 34 32 30
157 158 154 153 155 159 155 149 152 152 154 163 156 146 143 148 154 152 148 149 148 146 141 140 141 144 150 150 144 137 134 129 120 114 107 103 102 103 109 124 135 141 141 134 129 127 128 126 117 110 99 89 87 88 90 91 83 74 69 64 59 56 54 54 54 54 54 55 57 56 52 48 43 38 40 38 36 34 34 37 37 35 31 27 22
154 158 154 153 156 159 156 152 157 157 163 164 158 151 145 144 143 145 147 144 141 140 138 137 138 142 145 145 140 133 128 123 118 111 106 102 100 103 111 122 129 135 139 140 136 131 130 127 119 113 101 94 92 88 89 91 84 74 67 61 57 53 50 48 47 49 51 51 55 58 57 53 48 44 44 40 38 37 38 39 39 35 31 25 17
154 160 157 155 155 155 152 150 157 156 161 159 154 151 140 133 128 133 137 132 133 136 135 132 133 137 142 144 138 132 128 122 114 108 105 103 103 107 109 113 116 120 126 133 136 134 131 125 118 112 105 101 95 89 89 90 86 76 67 60 55 49 42 38 39 44 47 49 55 62 66 64 58 57 56 54 50 48 46 46 45 40 39 37 37
156 159 156 154 151 151 154 155 163 154 156 153 146 145 135 129 122 124 125 123 129 133 131 129 130 136 141 142 138 134 130 121 113 110 107 105 107 107 106 107 109 112 117 124 129 130 126 119 115 112 110 105 97 93 91 87 81 73 66 58 50 42 36 33 37 44 49 54 60 67 73 72 68 65 64 61 59 60 60 60 58 57 57 55 54
157 157 151 154 154 154 163 164 161 152 151 144 138 139 133 128 123 122 123 124 129 130 129 128 129 135 138 138 138 135 128 121 118 115 111 108 106 105 105 108 110 112 114 118 122 123 120 115 113 114 113 105 97 93 87 80 74 67 57 48 40 34 31 33 39 47 55 61 65 71 74 75 72 70 70 69 70 72 73 72 68 64 61 57 53
158 157 151 154 154 152 156 154 152 148 143 136 132 132 126 124 123 123 124 126 127 127 126 126 128 131 136 138 137 133 126 122 120 118 115 111 107 104 107 111 112 113 114 116 118 118 116 114 115 114 109 100 95 91 83 76 66 55 43 36 32 31 32 34 43 53 60 66 70 73 74 75 75 76 78 78 78 78 76 74 70 64 59 54 50
157 154 154 153 149 148 148 144 145 144 137 133 130 127 124 123 122 121 122 125 122 121 122 124 127 129 134 136 133 127 123 121 121 121 117 113 109 107 109 112 112 112 113 113 114 115 115 116 117 114 108 101 97 92 84 71 53 44 38 33 33 36 39 41 51 61 66 69 71 74 76 78 79 82 84 82 81 80 78 74 72 67 61 57 51
153 152 154 151 147 147 147 144 143 139 136 135 132 129 128 125 122 120 121 123 120 119 121 123 125 125 128 128 125 123 123 122 122 120 117 113 111 111 112 112 112 112 113 113 115 117 119 120 120 119 117 113 108 100 85 60 45 43 41 40 41 43 47 54 63 67 70 71 73 77 79 81 83 83 83 83 82 80 79 77 73 67 60 55 50
152 152 154 151 148 149 149 146 141 136 134 134 132 131 130 125 123 123 124 125 124 124 124 124 122 121 122 121 121 123 124 123 121 118 116 114 113 114 115 115 116 117 117 118 119 121 122 121 121 123 125 124 126 128 101 47 44 46 47 49 48 49 57 66 72 73 74 74 76 79 81 83 84 85 87 87 85 81 77 74 69 63 55 50 47
156 155 154 150 146 149 150 148 142 138 136 136 135 132 129 125 125 125 125 127 127 127 127 126 123 121 120 121 124 126 127 125 122 119 117 116 116 117 119 120 122 122 124 124 124 124 122 120 121 125 130 138 150 161 156 73 57 54 56 57 58 65 71 73 74 76 78 77 78 80 81 83 85 88 89 88 86 82 76 70 65 60 54 48 46
157 154 152 148 146 148 150 149 145 143 140 139 136 132 130 127 126 124 125 126 127 128 127 126 124 122 123 125 128 128 127 126 123 120 119 120 121 123 125 127 128 129 130 130 129 127 121 119 118 121 133 155 160 142 117 94 78 69 66 69 76 82 80 74 70 73 77 79 81 83 85 86 88 89 88 86 83 80 76 70 65 61 56 51 48
157 154 151 147 146 149 150 149 147 145 143 141 139 136 133 131 129 126 126 127 128 128 126 126 126 126 127 129 129 129 128 127 125 123 123 125 126 127 129 131 133 135 137 136 135 129 121 109 91 77 71 114 130 109 97 92 87 82 81 85 90 88 80 72 69 72 77 81 84 87 89 90 90 87 85 83 79 77 73 69 66 62 59 56 55
158 155 150 147 148 151 151 150 147 145 144 143 140 138 135 134 132 129 128 128 128 127 127 129 129 130 130 131 131 130 129 128 126 125 125 126 128 130 132 136 140 143 147 146 144 137 124 98 70 63 63 76 109 108 97 90 87 87 89 90 90 84 76 73 74 78 82 86 88 90 90 88 86 83 80 78 75 73 70 69 67 66 65 64 63
161 159 153 148 148 151 152 150 147 144 144 142 141 138 136 136 134 131 129 129 129 129 130 131 131 132 131 132 132 131 130 128 127 125 124 125 128 133 135 138 144 151 156 154 151 143 127 98 72 63 62 72 99 111 102 91 89 89 90 87 82 76 74 78 81 83 84 85 85 85 86 84 82 79 78 76 75 74 73 73 73 74 75 74 72
165 162 156 151 149 151 152 150 148 144 143 141 141 139 137 137 136 134 133 132 132 131 131 131 132 132 131 132 132 133 132 131 130 127 123 121 125 130 131 137 145 154 158 158 155 145 127 93 63 48 44 62 89 109 106 96 91 88 87 82 77 73 75 82 85 83 81 78 77 76 76 76 76 75 75 74 75 76 77 79 81 83 83 80 75
166 161 158 154 150 150 152 151 149 145 143 142 141 141 139 140 139 137 134 133 132 132 132 132 132 131 131 132 133 134 135 135 134 129 123 119 122 127 129 134 142 153 160 163 162 151 122 68 39 28 36 65 89 104 103 96 91 85 83 78 75 75 77 84 85 82 79 77 74 72 70 69 68 67 68 71 74 77 79 82 85 86 83 78 71
163 161 159 156 152 151 153 153 152 149 145 145 145 144 143 143 142 139 135 134 134 134 135 134 133 131 131 132 134 136 138 138 134 129 125 120 123 127 129 134 142 156 166 171 172 160 113 45 24 22 44 73 91 104 98 91 88 82 78 72 72 77 79 84 85 82 80 76 73 70 68 65 64 63 62 66 72 76 79 82 82 78 74 69 63
164 163 160 157 155 154 155 155 154 152 148 146 146 145 145 146 145 140 136 136 135 135 137 137 136 136 136 136 137 139 139 135 130 126 121 115 118 122 126 133 144 158 171 180 181 171 136 36 25 25 42 67 89 106 96 85 83 79 75 68 67 71 75 79 82 81 77 73 71 68 66 63 62 63 61 63 68 71 72 73 71 63 58 57 55
168 163 160 158 157 157 157 157 156 154 150 147 145 145 145 147 146 142 140 140 139 139 140 141 142 143 144 142 141 141 137 129 124 118 109 105 106 110 120 130 141 157 173 181 182 180 164 36 26 21 27 53 75 109 105 81 73 70 67 62 59 60 65 72 75 74 67 64 63 61 60 60 60 61 62 61 59 57 53 51 47 42 41 43 44
170 163 162 160 159 158 157 158 158 156 153 150 149 149 149 150 150 149 148 147 147 146 147 148 150 151 150 147 144 143 139 130 121 113 103 99 97 103 112 121 134 149 165 175 181 186 166 33 20 15 37 65 68 111 131 83 54 54 50 44 45 52 59 69 71 62 52 49 51 52 53 56 60 61 62 59 53 44 37 35 31 28 29 29 31
173 169 165 162 160 159 158 159 159 157 155 155 155 155 155 155 157 157 155 155 154 154 155 156 155 155 153 147 143 141 139 130 123 117 108 103 102 105 102 105 124 146 160 170 179 182 122 32 15 19 90 77 73 107 118 88 56 46 35 32 36 47 59 74 76 61 52 48 44 46 48 55 62 62 64 63 57 53 49 47 42 37 33 29 30
176 175 169 164 162 160 160 161 160 160 159 159 158 158 159 161 161 161 159 158 158 160 161 161 158 157 154 145 138 134 126 124 126 125 121 116 111 107 98 102 126 155 164 172 180 178 86 28 10 12 271 287 205 138 90 68 52 38 28 29 36 52 72 86 80 62 47 37 31 34 44 56 64 64 66 65 60 59 59 55 49 45 40 37 38
180 179 175 169 167 165 164 164 164 164 164 164 162 162 164 165 165 164 164 164 165 166 164 162 159 157 154 146 147 125 92 109 133 130 131 126 119 116 115 126 144 166 172 182 187 175 105 16 1 352 275 296 238 209 310 14 19 14 10 20 35 49 72 76 58 43 29 22 18 26 43 59 66 64 63 61 57 55 54 49 43 41 40 41 43
185 184 180 176 175 172 171 171 169 169 171 171 170 170 171 169 171 172 172 171 169 170 168 164 160 160 160 153 157 96 24 320 165 142 144 141 137 136 143 152 163 175 183 197 199 184 184 318 347 339 267 285 265 222 240 270 300 320 331 358 36 38 51 50 36 23 17 17 21 36 54 65 67 62 57 52 45 41 42 41 36 34 35 35 34
188 187 186 183 181 179 179 178 175 175 177 177 177 178 176 176 177 176 173 171 168 169 168 168 177 193 207 224 260 275 276 235 220 199 171 164 164 166 174 179 184 185 192 204 205 198 205 241 301 273 259 275 267 237 248 270 269 278 307 2 57 25 28 24 11 2 3 13 28 46 60 64 58 50 44 37 29 27 27 29 28 27 26 21 18
188 187 187 186 185 185 184 182 180 180 181 181 181 181 181 181 180 176 170 167 166 168 165 168 188 210 230 246 254 247 223 207 217 219 196 188 193 206 208 207 208 200 200 205 206 207 215 231 243 248 260 272 257 222 241 263 236 243 317 359 312 309 326 324 336 339 341 352 8 34 49 45 39 36 32 20 14 14 14 17 19 19 17 11 7
188 187 188 188 188 188 186 186 185 183 183 184 185 184 183 181 178 174 169 167 166 166 168 176 192 213 230 242 241 230 215 203 206 207 203 201 202 207 204 203 210 208 203 205 208 210 220 235 234 241 261 260 232 216 240 252 205 217 347 345 316 301 307 306 313 321 326 336 337 10 30 15 13 20 19 10 3 1 6 14 19 19 15 9 5
190 189 190 191 192 191 189 189 188 187 187 188 188 186 182 179 176 174 175 177 173 170 175 182 195 215 227 232 228 221 212 201 202 202 204 207 201 202 202 203 208 207 204 205 210 217 224 236 239 243 256 259 241 241 264 268 263 281 309 337 334 316 312 308 306 309 323 339 332 309 356 352 356 1 1 0 356 348 352 3 8 9 8 7 7
194 194 195 195 196 195 192 191 191 189 190 191 191 189 185 183 180 180 187 191 189 188 189 191 200 212 219 223 219 219 214 204 205 203 200 207 205 205 209 212 213 206 203 205 214 222 227 236 244 250 256 260 256 258 270 273 273 275 288 320 337 335 323 310 305 310 323 330 321 319 339 334 338 348 352 354 353 344 335 342 350 353 355 359 1
198 199 199 197 198 197 194 193 192 190 192 194 194 193 191 189 187 189 193 197 198 198 200 203 209 215 222 223 218 219 217 212 213 209 206 211 213 214 216 219 216 206 201 208 219 224 226 234 243 253 259 259 255 257 268 270 272 273 283 305 320 331 332 322 309 309 315 314 302 311 326 322 323 334 341 343 346 343 332 328 334 345 351 352 351
198 200 200 197 197 199 197 196 195 192 192 194 194 197 197 197 198 199 201 204 204 204 207 213 218 226 237 235 225 219 218 219 217 214 212 215 219 219 220 221 218 211 205 209 220 224 224 231 239 247 253 254 251 256 269 269 270 272 281 298 305 313 331 344 344 325 318 311 301 310 318 317 319 328 333 332 332 334 330 326 328 337 342 340 340
198 200 200 198 196 197 200 201 202 199 196 196 197 201 204 204 206 209 211 212 212 214 219 224 226 230 237 240 235 224 221 223 221 218 217 217 220 218 219 220 221 220 213 211 220 223 223 226 231 235 240 246 248 256 275 274 268 268 272 286 295 306 323 339 347 340 332 323 316 318 319 313 317 326 331 330 329 331 331 329 328 330 332 328 331
200 201 202 200 198 198 202 206 208 207 203 202 203 206 209 210 213 217 219 220 221 228 236 238 237 234 231 232 234 230 224 225 225 224 223 223 223 219 220 220 220 222 216 216 224 226 224 225 225 228 234 243 249 253 264 265 261 268 276 285 295 306 316 321 328 335 334 329 324 324 326 320 315 321 326 324 323 330 332 330 328 330 332 329 327
203 204 204 203 201 201 205 209 210 211 210 209 210 212 212 213 217 221 225 227 228 232 239 241 239 237 231 226 229 230 225 224 226 226 226 228 228 224 221 220 219 220 218 222 232 233 231 231 231 232 236 244 248 250 255 257 259 266 279 291 297 301 307 313 319 325 325 323 320 321 325 324 321 324 327 323 321 328 331 327 325 326 328 326 326
206 206 206 206 204 203 206 207 209 212 214 214 215 215 215 215 218 222 225 229 231 233 236 236 234 234 229 224 226 227 225 223 224 226 227 229 230 227 224 223 223 223 224 230 236 237 237 240 242 241 241 246 247 247 249 253 258 264 273 285 294 297 301 305 309 313 313 309 309 314 320 322 324 328 331 331 332 334 332 325 320 317 319 322 326